User: anonymous   Login
Location: �chenoz-la-M�line
(47.6009°N, 6.1354°E)
Time: 20:14:55
(UTC+00:00)
Language:

Cosmos 1814 Rocket - Orbit

View from above orbital plane
View from above orbital plane
View from above satellite
View from above satellite

Ground track
Ground track

The orbit data is extracted from the following two-line orbital elements,

1 17304U 87006B   21210.06407824 -.00000064  00000-0 -12474-4 0  9997
2 17304  74.0559 208.0261 0029086  28.1269 332.1448 14.37736580809274
Epoch (UTC): 29 July 2021 01:32:16
Eccentricity: 0.0029086
inclination: 74.0559°
perigee height: 745 km
apogee height: 787 km
right ascension of ascending node: 208.0261°
argument of perigee: 28.1269°
revolutions per day: 14.37736580
mean anomaly at epoch: 332.1448°
orbit number at epoch: 80927

The dashed part of the orbit path shows where the satellite is in the earth's shadow,  

DLR